Weather History for Baker, OR

Change the Weather History Date:

Wednesday, May 9, 2012

  Actual Average Record
Temperature  
Mean Temperature 51 °F 49 °F  
Max Temperature 64 °F 64 °F 83 °F (1994)
Min Temperature 37 °F 34 °F 22 °F (1999)
Degree Days  
Heating Degree Days 14 16  
Month to date heating degree days 181 152  
Since 1 July heating degree days 6737 7165  
Cooling Degree Days 0 0  
Month to date cooling degree days 0 0  
Year to date cooling degree days 0 0  
Moisture  
Dew Point 34 °F    
Average Humidity 58    
Maximum Humidity 92    
Minimum Humidity 24    
Precipitation  
Precipitation 0.00 in 0.04 in 0.93 in (1963)
Month to date precipitation 0.56 0.38  
Year to date precipitation 3.47 3.43  
Sea Level Pressure  
Sea Level Pressure 30.01 in    
Wind  
Wind Speed 16 mph (NW)    
Max Wind Speed 36 mph    
Max Gust Speed 43 mph    
Visibility 10 miles    
Events      
T = Trace of Precipitation, MM = Missing Value Source: NWS Daily Summary

Daily Weather History Graph

Daily Weather History Graph

Search for Another Location

Airport:

Trip Planner

Search our weather history database for the weather conditions in past years. The results will help you decide how hot, cold, wet, or windy it might be!

Date:

Astronomy

May. 09, 2012 Rise Set
Actual Time 5:29 AM PDT 8:06 PM PDT
Civil Twilight 4:55 AM PDT 8:40 PM PDT
Nautical Twilight 4:13 AM PDT 9:22 PM PDT
Astronomical Twilight 3:25 AM PDT 10:10 PM PDT
Moon No Moon Rise 8:47 AM PDT (5/9)
Length of Visible Light 15h 44m
Length of Day
14h 37m
Waning Gibbous, 82% of the Moon is Illuminated
May 9
Waning Gibbous
May 12
Last Quarter
May 20
New
May 28
First Quarter
Jun 4
Full

Hourly Weather History & Observations

Time (PDT) Temp. Windchill Dew Point Humidity Pressure Visibility Wind Dir Wind Speed Gust Speed Precip Events Conditions
12:53 AM 46.9 °F - 39.0 °F 74% 29.97 in 10.0 mi Calm Calm - N/A   Clear
1:53 AM 46.0 °F 44.8 °F 39.0 °F 76% 29.97 in 10.0 mi South 3.5 mph - N/A   Clear
2:53 AM 44.1 °F - 37.0 °F 76% 29.97 in 10.0 mi Calm Calm - N/A   Clear
3:53 AM 41.0 °F - 37.0 °F 86% 29.99 in 10.0 mi Calm Calm - N/A   Clear
4:53 AM 37.9 °F 35.5 °F 35.1 °F 89% 29.99 in 10.0 mi SSW 3.5 mph - N/A   Clear
5:53 AM 41.0 °F - 34.0 °F 76% 30.00 in 10.0 mi Calm Calm - N/A   Clear
6:53 AM 48.0 °F - 37.9 °F 68% 30.01 in 10.0 mi Variable 3.5 mph - N/A   Clear
7:53 AM 52.0 °F - 39.9 °F 63% 30.03 in 10.0 mi NW 9.2 mph - N/A   Clear
8:53 AM 54.0 °F - 41.0 °F 62% 30.02 in 10.0 mi NNW 17.3 mph - N/A   Clear
9:53 AM 57.0 °F - 42.1 °F 57% 30.01 in 10.0 mi NNW 12.7 mph - N/A   Clear
10:53 AM 59.0 °F - 42.1 °F 53% 30.02 in 10.0 mi NW 13.8 mph 20.7 mph N/A   Clear
11:53 AM 60.1 °F - 42.1 °F 51% 30.01 in 10.0 mi WNW 12.7 mph 17.3 mph N/A   Clear
12:53 PM 63.0 °F - 44.1 °F 50% 29.99 in 10.0 mi North 15.0 mph 20.7 mph N/A   Clear
1:53 PM 63.0 °F - 43.0 °F 48% 29.98 in 10.0 mi NNW 23.0 mph 28.8 mph N/A   Clear
2:53 PM 61.0 °F - 42.1 °F 50% 29.97 in 10.0 mi NNW 24.2 mph 34.5 mph N/A   Partly Cloudy
3:53 PM 61.0 °F - 39.9 °F 46% 29.97 in 10.0 mi NNW 26.5 mph 35.7 mph N/A   Clear
4:53 PM 57.9 °F - 27.0 °F 31% 29.99 in 10.0 mi NW 29.9 mph 40.3 mph N/A   Partly Cloudy
5:53 PM 52.0 °F - 18.0 °F 26% 30.01 in 10.0 mi NW 27.6 mph 36.8 mph N/A   Clear
6:53 PM 51.1 °F - 18.0 °F 27% 29.99 in 10.0 mi NW 25.3 mph 42.6 mph N/A   Partly Cloudy
7:53 PM 48.0 °F - 14.0 °F 26% 30.03 in 10.0 mi NW 27.6 mph 35.7 mph N/A   Clear
8:53 PM 46.0 °F 37.4 °F 19.9 °F 35% 30.07 in 10.0 mi NW 25.3 mph 33.4 mph N/A   Clear
9:53 PM 44.1 °F 35.4 °F 24.1 °F 45% 30.09 in 10.0 mi NNW 21.9 mph - N/A   Overcast
10:53 PM 43.0 °F 33.5 °F 25.0 °F 49% 30.11 in 10.0 mi NW 24.2 mph 31.1 mph N/A   Overcast
11:53 PM 42.1 °F 34.2 °F 25.0 °F 51% 30.12 in 10.0 mi NW 16.1 mph 25.3 mph N/A   Overcast